Flag for U.S.A. Weather past 2 weeks in Fort Worth, Texas, U.S.A.

Now
90 °F

Clear.


Feels Like: 91 °F
Forecast: 78 / 98 °F
Wind: 15 mph from Southeast

Location: Meacham International Airport

Current Time: Aug 21, 2014 at 11:31:54 PM

Latest Report: Aug 21, 2014 at 10:53 PM


Visibility: 10 mi

Pressure: 29.92 "Hg

Humidity: 41%

Dew point: 63 °F

Location of Fort WorthLocation

Historic Weather in Fort Worth — Graph

°F

Fort Worth temperature yesterday

Maximum temperature yesterday: 98 °F (at 2:53 PM)
Minimum temperature yesterday: 80 °F (at 3:53 AM)
Average temperature yesterday: 88 °F

Past Weeks' High & Low Weather Summary

 TemperatureHumidityPressure
High104 °F (Aug 8, 3:53 PM)90% (Aug 17, 6:53 AM)30.09 "Hg (Aug 17, 6:53 AM)
Low72 °F (Aug 14, 6:53 AM)25% (Aug 15, 3:53 PM)29.75 "Hg (Aug 7, 6:53 PM)
Average87 °F52%29.92 "Hg
* Reported Aug 6 9:53 PM — Aug 21 9:53 PM, Fort Worth, Weather by CustomWeather, © 2014

Note: Actual official high and low records may vary slightly from our data, if they occured in-between our weather recording intervals... More about our weather records

Advertising

Fort Worth weather history for previous 24 hours

 ConditionsComfort  
Time TempWeatherWind HumidityBarometerVisibility
9:53 PM
Aug 21
93 °FClear.14 mph33%29.91 "Hg10 mi
8:53 PM94 °FSunny.15 mph33%29.90 "Hg10 mi
7:53 PM96 °FSunny.14 mph31%29.89 "Hg10 mi
6:53 PM99 °FSunny.17 mph26%29.88 "Hg10 mi
5:53 PM100 °FSunny.14 mph29%29.89 "Hg10 mi
4:53 PM101 °FSunny.18 mph30%29.89 "Hg10 mi
3:53 PM100 °FSunny.20 mph33%29.90 "Hg10 mi
2:53 PM99 °FPassing clouds.16 mph37%29.92 "Hg10 mi
1:53 PM97 °FScattered clouds.18 mph40%29.95 "Hg10 mi
12:53 PM95 °FPartly sunny.18 mph46%29.96 "Hg10 mi
11:53 AM91 °FPartly sunny.20 mph54%29.98 "Hg10 mi
10:53 AM89 °FPartly sunny.16 mph57%29.98 "Hg10 mi
9:53 AM86 °FScattered clouds.18 mph65%29.98 "Hg10 mi
8:53 AM83 °FSunny.14 mph72%29.98 "Hg10 mi
7:53 AM80 °FClear.9 mph76%29.98 "Hg10 mi
6:53 AM79 °FClear.12 mph79%29.97 "Hg10 mi
5:53 AM80 °FClear.9 mph76%29.94 "Hg10 mi
4:53 AM81 °FClear.14 mph74%29.93 "Hg10 mi
3:53 AM82 °FClear.13 mph70%29.91 "Hg10 mi
2:53 AM83 °FClear.17 mph68%29.91 "Hg10 mi
1:53 AM84 °FClear.16 mph65%29.91 "Hg10 mi
12:53 AM84 °FClear.16 mph65%29.91 "Hg10 mi
11:53 PM
Aug 20
85 °FClear.14 mph61%29.91 "Hg10 mi
Weather by CustomWeather, © 2014

See weather overviewHow to use our weather pages